Snowfall_Accumulation
0.0 0.0 0.0 0.0 0.0 0.0 0.0 0.0 0.0 0.0 0.0 0.0 0.0 0.0 0.0 0.0 0.0 0.0 0.0 0.0 0.0 0.0 0.0 0.0 0.0 0.0 0.0 0.0 0.0 0.0 0.0 0.0 0.0 0.0 0.0 0.0 0.0 0.0 0.0 0.0 0.0 0.0 0.0 0.0 0.0 0.0 0.0
0.0 0.0 0.0 0.0 0.0 0.0 0.0 0.0 0.0 0.0 0.0 0.0 0.0 0.0 0.0 0.0 0.0 0.0 0.0 0.0 0.0 0.0 0.0 0.0 0.0 0.0 0.0 0.0 0.0 0.0 0.0 0.0 0.0 0.0 0.0 0.0 0.0 0.0 0.0 0.0 0.0 0.0 0.0 0.0 0.0 0.0 0.0
0.0 0.0 0.0 0.0 0.0 0.0 0.0 0.0 0.0 0.0 0.0 0.0 0.0 0.0 0.0 0.0 0.0 0.0 0.0 0.0 0.0 0.0 0.0 0.0 0.0 0.0 0.0 0.0 0.0 0.0 0.0 0.0 0.0 0.0 0.0 0.0 0.0 0.0 0.0 0.0 0.0 0.0 0.0 0.0 0.0 0.0 0.0
0.0 0.0 0.0 0.0 0.0 0.0 0.0 0.0 0.0 0.0 0.0 0.0 0.0 0.0 0.0 0.0 0.0 0.0 0.0 0.0 0.0 0.0 0.0 0.0 0.0 0.0 0.0 0.0 0.0 0.0 0.0 0.0 0.0 0.0 0.0 0.0 0.0 0.0 0.0 0.0 0.0 0.0 0.3 4.9 0.0 0.0 0.0
0.0 0.0 0.0 0.0 0.0 0.0 0.0 0.0 0.0 0.0 0.0 0.0 0.0 0.0 0.0 0.0 0.0 0.0 0.0 0.0 0.0 0.0 0.0 0.0 0.0 0.0 0.0 0.0 0.0 0.0 0.0 0.0 0.0 0.0 0.0 0.0 0.0 0.0 0.0 0.0 1.0 0.5 3.5 3.6 0.0 0.0 0.0
0.0 0.0 0.0 0.0 0.0 0.0 0.0 0.0 0.0 0.0 0.0 0.0 0.0 0.0 0.0 0.0 0.0 0.0 0.0 0.0 0.0 0.0 0.0 0.0 0.0 0.0 0.0 0.0 0.0 0.0 0.0 0.0 0.0 0.0 0.0 0.0 0.0 0.0 0.0 0.9 5.7 1.5 1.4 0.5 1.5 0.0 0.0
0.0 0.0 0.0 0.0 0.0 0.0 0.0 0.0 0.0 0.0 0.0 0.0 0.0 0.0 0.0 0.0 0.0 0.0 0.0 0.0 0.0 0.0 0.0 0.0 0.0 0.0 0.0 0.0 0.0 0.0 0.0 0.0 0.0 0.0 0.0 0.0 0.4 0.7 0.0 0.0 0.0 1.0 2.1 1.8 0.0 0.0 0.2
0.0 0.0 0.0 0.0 0.0 0.0 0.0 0.0 0.0 0.0 0.0 0.0 0.0 0.0 0.0 0.0 0.0 0.0 0.0 0.0 0.0 0.0 0.0 0.0 0.0 0.0 0.0 0.0 0.0 0.0 0.0 0.0 0.0 0.0 0.0 0.0 0.7 0.0 0.0 0.0 0.8 0.8 3.0 3.4 0.6 0.0 0.0
0.0 0.0 0.0 0.0 0.0 0.0 0.0 0.0 0.0 0.0 0.0 0.0 0.0 0.0 0.0 0.0 0.0 0.0 0.0 0.0 0.0 0.0 0.8 0.0 0.0 0.0 0.0 0.0 0.0 0.0 0.0 0.0 0.0 0.0 0.2 1.2 0.0 0.0 0.0 0.0 1.5 0.8 3.4 2.5 2.4 0.5 0.2
0.0 0.0 0.0 0.0 0.0 0.0 0.0 0.0 0.0 0.0 0.0 0.0 0.0 0.0 0.0 0.0 0.0 0.0 0.0 0.0 0.0 0.0 13.5 2.2 0.0 0.0 0.0 0.0 0.1 0.0 0.0 0.0 0.3 1.6 0.0 0.9 0.0 0.0 0.1 0.2 0.1 3.5 0.0 0.0 0.7 4.5 9.8
0.0 0.0 0.0 0.0 0.0 0.0 0.0 0.0 0.0 0.0 0.0 0.0 0.0 0.0 0.0 0.0 0.0 0.0 0.0 0.0 0.0 0.0 28.3 0.4 0.0 0.0 0.0 0.0 0.0 0.0 0.0 0.0 1.5 1.5 1.8 4.5 0.0 0.0 0.5 0.0 0.0 0.8 0.0 0.1 1.0 3.7 7.8
0.0 0.0 0.0 0.0 0.0 0.0 0.0 0.0 0.0 0.0 0.0 0.0 0.0 0.0 0.0 0.0 0.0 0.0 0.0 0.0 0.0 21.1 30.4 6.3 0.0 0.0 0.0 0.0 0.0 0.0 0.0 0.0 0.0 0.1 0.0 0.6 0.0 0.0 0.7 0.4 0.1 0.0 0.2 0.1 0.4 3.4 29.9
0.0 0.0 0.0 0.0 0.0 0.0 0.0 0.0 0.0 0.0 0.0 0.0 0.0 0.0 0.0 0.0 0.0 0.0 0.0 0.0 20.1 22.2 3.9 6.7 1.9 0.0 0.0 0.0 0.0 0.0 0.2 2.4 5.6 14.4 10.8 4.7 2.1 0.3 0.8 1.6 0.0 2.5 9.4 29.2 27.0 32.6 10.3
0.0 0.0 0.0 0.0 0.0 0.0 0.0 0.0 0.0 0.0 0.0 0.0 0.0 0.0 0.0 0.0 0.0 0.0 0.0 1.3 19.0 2.6 7.1 0.0 0.0 0.0 0.8 0.0 0.0 0.0 0.2 2.9 2.5 3.7 6.7 10.0 11.2 3.3 0.8 5.2 9.3 1.6 10.4 25.9 21.2 7.0 1.9
0.0 0.0 0.0 0.0 0.0 0.0 0.0 0.0 0.0 0.0 0.0 0.0 0.0 0.0 0.0 0.0 0.0 0.0 0.0 19.7 7.3 6.6 4.3 0.7 0.0 1.0 0.7 0.0 0.4 0.6 1.3 5.2 4.5 4.2 14.8 9.5 2.9 0.2 0.6 0.6 4.3 4.2 15.4 1.6 16.5 3.2 8.1
0.0 0.0 0.0 0.0 0.0 0.0 0.0 0.0 0.0 0.0 0.0 0.0 0.0 0.0 0.0 0.0 0.0 0.0 4.3 10.7 4.0 1.2 0.0 0.3 3.5 0.9 2.6 0.4 0.9 1.7 1.9 6.7 4.3 3.0 3.0 6.3 8.5 0.1 0.8 0.9 1.6 6.8 5.5 12.1 25.6 28.0 6.9
0.0 0.0 0.0 0.0 0.0 0.0 0.0 0.0 0.0 0.0 0.0 0.0 0.0 0.0 0.0 0.0 0.0 0.0 20.1 8.0 2.3 0.5 0.5 0.6 1.2 2.2 2.7 2.4 0.1 1.5 3.4 3.4 2.6 1.9 1.5 5.4 13.6 0.6 0.6 5.3 13.3 8.4 26.2 13.6 11.6 8.9 19.1
0.0 0.0 0.0 0.0 0.0 0.0 0.0 0.0 0.0 0.0 0.0 0.0 0.0 3.4 0.0 0.0 0.3 4.0 7.6 3.8 0.0 0.7 0.1 0.5 1.4 4.2 3.8 1.8 2.1 0.5 2.2 3.5 2.2 2.7 4.6 4.9 13.9 12.6 2.5 3.9 6.3 5.1 16.2 21.1 22.6 11.6 13.6
0.0 0.0 0.0 0.0 0.0 0.0 0.0 0.0 0.0 0.0 0.0 0.0 2.8 0.0 0.0 0.0 10.2 4.8 1.1 0.2 0.1 0.0 0.3 0.2 1.0 0.9 1.8 1.7 4.5 0.1 0.1 0.0 0.5 1.0 4.1 8.5 16.2 14.9 9.9 5.1 3.0 10.8 11.0 14.4 12.6 14.4 21.3
0.0 0.0 0.0 0.0 0.0 0.0 0.0 0.0 0.0 0.0 0.0 0.0 3.6 8.3 0.0 0.0 0.1 5.6 3.7 0.8 0.0 0.1 0.0 0.6 0.6 0.3 0.5 0.2 0.0 1.1 0.2 0.0 0.0 0.2 0.8 2.4 8.0 13.8 21.0 16.2 14.9 17.8 9.0 10.4 18.9 41.1 18.3
0.0 0.0 0.0 0.0 0.0 0.0 0.0 0.0 0.0 0.0 0.0 0.0 2.2 4.6 0.5 7.7 1.6 1.7 3.4 4.1 1.5 1.1 0.4 0.5 0.7 0.7 3.5 4.0 0.3 0.3 0.0 0.0 0.0 0.0 0.5 2.3 11.8 2.2 1.6 2.5 8.5 13.1 15.5 13.3 25.6 18.4 31.7
0.0 0.0 0.0 0.0 0.0 0.0 0.0 0.0 0.0 0.0 0.0 0.0 6.5 9.7 6.1 2.8 1.4 1.4 2.2 2.5 1.8 1.5 3.1 1.0 0.8 0.5 0.6 3.2 2.1 2.0 0.4 0.0 0.2 0.0 0.0 2.0 11.5 7.9 6.4 2.7 6.7 12.3 7.9 9.4 13.2 15.3 19.3
0.0 0.0 0.0 0.0 0.0 0.0 0.0 0.0 0.0 0.0 0.0 1.3 0.1 0.5 12.4 1.6 1.7 4.3 2.1 2.9 2.9 1.9 0.0 0.4 0.7 1.5 0.4 0.3 0.0 0.0 0.0 0.0 0.7 1.8 1.4 5.5 6.2 10.5 8.2 2.0 4.0 15.7 20.3 14.7 15.2 19.6 24.4
0.0 0.0 0.0 0.0 0.0 0.0 0.0 0.0 0.0 0.0 0.0 0.0 0.0 2.9 20.5 11.8 2.1 0.8 1.3 3.1 3.2 1.4 3.2 0.3 0.3 1.6 0.1 0.0 0.0 0.0 0.0 0.0 0.0 0.1 0.0 1.4 5.5 8.2 9.0 3.6 20.5 13.0 6.1 9.8 15.1 17.4 17.6
0.0 0.0 0.0 0.0 0.0 0.0 0.0 0.0 0.0 0.0 0.0 0.0 0.0 2.5 16.3 14.8 0.2 0.1 2.3 2.0 2.0 1.2 1.0 0.8 0.1 0.0 0.0 0.5 1.4 1.1 0.9 0.9 0.0 0.0 0.2 0.8 2.5 8.1 8.8 4.1 2.3 1.5 1.7 4.6 12.8 15.2 9.3
0.0 0.0 0.0 0.0 0.0 0.0 0.0 0.0 0.0 0.0 0.0 0.0 0.0 0.0 5.9 22.7 1.0 0.4 1.9 1.8 4.6 3.9 2.7 0.9 0.0 0.0 0.1 4.2 5.8 9.6 3.4 1.7 1.0 1.4 1.0 0.1 0.8 6.2 5.4 8.8 4.6 3.0 0.2 0.3 2.2 14.2 1.6
0.0 0.0 0.0 0.0 0.0 0.0 0.0 0.0 0.0 0.0 0.0 0.0 0.0 0.0 4.6 20.7 0.7 0.9 2.8 2.9 1.1 3.3 7.0 2.9 2.3 0.6 0.0 4.3 8.8 6.4 1.1 0.7 1.1 1.9 3.1 4.3 5.0 7.2 3.2 8.2 1.5 0.0 0.0 0.3 3.3 6.1 4.8
0.0 0.0 0.0 0.0 0.0 0.0 0.0 0.0 0.0 0.0 0.0 0.0 0.0 0.0 2.6 15.3 0.6 0.0 0.0 1.7 1.7 2.8 7.3 4.2 7.7 3.6 6.3 11.1 8.3 7.4 6.8 5.2 2.8 0.1 2.5 6.7 4.5 3.5 4.3 11.4 4.2 0.0 0.0 2.0 3.9 0.9 4.0
0.0 0.0 0.0 0.0 0.0 0.0 0.0 0.0 0.0 0.0 0.0 0.0 0.3 0.0 0.0 5.4 4.3 0.3 0.1 0.0 0.3 1.2 4.2 3.8 6.9 4.6 5.3 10.1 11.7 10.5 10.3 8.0 1.5 4.0 0.2 11.5 6.5 5.0 1.5 0.4 0.0 0.0 0.0 0.0 0.0 1.6 1.9